IUS R/B(1), 25868

Orbit data source: Space-Track

IUS R/B(1), 25868 is space debris originally from a launch on Fri, 23 Jul 1999 UTC launched from the Air Force Eastern Test Range (AFETR). Debris objects in space refer to the collection of defunct objects orbiting the Earth. Examples of debris include non-operational satellites, rocket bodies, and fragments generated from explosions, collisions, or faulty payload assembly.

Loading next visibility...
Identifier
25868, 1999-040C
Orbit
Active
Country
Flag of USUS
Related business
Manufacturer
PW CSD
Mission
Spacecraft
Bus & Motor
ORBUS 21, ORBUS 21
Mass
1,164 kg wet, 1,164 kg dry
Launch date (UTC)
1999-07-23 (26 years ago)
Launch vehicle
Unknown
Launch site
Air Force Eastern Test Range (AFETR)
Object type
Payload
Rocket body
Debris
Shape & HBR
Cyl, Unknown HBR
Radar Cross Section
8.491 m², Large (>1 m²)

Expand to show TLE details & history
Last TLE update: 6 hours ago

TLE from 6 hours ago
0 IUS R/B(1)
1 25868U 99040C   25302.48929679  .00020908  00000-0  10996-2 0  9993
2 25868  28.4742  47.8829 4374918  11.4801 355.9576  6.77796117597885
Epoch: 2025-10-29T11:44Z
TLE epoch observation values (Epoch: 2025-10-29T11:44:35.242Z)
Latitude
-0.00007°
Longitude
-166.32577°
Altitude
295.619 km
Speed
9.256 km/s
True Right ascension
03h 11m 31s
True Declination
0° 00' 00"
Sunlit
Object was in full shadow at epoch
Visualization orbit readout
Latitude
Unknown
Longitude
Unknown
Altitude
Unknown
Speed
Unknown
Apparent Right ascension
Unknown
Apparent Declination
Unknown
Sunlit
N/A
Visualization observer readout
Local Sidereal Time
13:16:44
Azimuth
Unknown
Elevation
Unknown
Doppler factor
Unknown
Orbital elements
Apogee altitude
10,580.83 km
Perigee altitude
258.115 km
Semi-major axis
11,797.61 km
Eccentricity
0.43749
Inclination
28.4742°
RAAN
47.8829°
Arg. of periapsis
11.4801°
True anomaly
348.55834°
Mean anomaly
355.9576°
Eccentric anomaly
352.82817°
Mean motion
1.69376 °/min
Orbital period
212.54 mins
BSTAR
0.0010996
Loading maneuver chart data...
Computing Atmospheric mass density...
Loading historical data...
Loading historical data...
Loading historical data...
Loading historical data...
Loading historical data...
Loading historical data...
Loading historical data...

Documentation

Showing up to 5 results
|